| time (UTC) | temp F | wind direction | speed MPH | gust MPH | rain 1hr in | rain 24hr in | rain mn in | humidity % | barometer mb |
| 20260510224413 | 57 | 270 | 0.0 | 2.0 | 0.00 | 0.00 | 0.00 | 32 | 1022.9 |
| 20260510223909 | 58 | 247 | 7.0 | 8.0 | 0.00 | 0.00 | 0.00 | 30 | 1023.0 |
| 20260510223407 | 58 | 199 | 1.0 | 5.0 | 0.00 | 0.00 | 0.00 | 31 | 1022.8 |
| 20260510222904 | 58 | 216 | 5.0 | 9.0 | 0.00 | 0.00 | 0.00 | 30 | 1022.9 |
| 20260510222402 | 58 | 281 | 3.0 | 6.0 | 0.00 | 0.00 | 0.00 | 33 | 1022.8 |
| 20260510221856 | 58 | 231 | 7.0 | 9.0 | 0.00 | 0.00 | 0.00 | 33 | 1022.8 |
| 20260510221353 | 58 | 267 | 4.0 | 9.0 | 0.00 | 0.00 | 0.00 | 32 | 1022.8 |
| 20260510220849 | 58 | 280 | 2.0 | 6.0 | 0.00 | 0.00 | 0.00 | 32 | 1022.9 |
| 20260510220346 | 58 | 256 | 3.0 | 6.0 | 0.00 | 0.00 | 0.00 | 32 | 1022.7 |
| 20260510215842 | 58 | 203 | 3.0 | 5.0 | 0.00 | 0.00 | 0.00 | 31 | 1022.7 |
| 20260510215340 | 57 | 281 | 4.0 | 8.0 | 0.00 | 0.00 | 0.00 | 31 | 1022.7 |
| 20260510214837 | 58 | 322 | 5.0 | 17.0 | 0.00 | 0.00 | 0.00 | 31 | 1022.5 |
| 20260510214334 | 59 | 210 | 3.0 | 6.0 | 0.00 | 0.00 | 0.00 | 32 | 1022.5 |
| 20260510213831 | 59 | 217 | 6.0 | 8.0 | 0.00 | 0.00 | 0.00 | 30 | 1022.6 |
| 20260510213327 | 58 | 322 | 3.0 | 9.0 | 0.00 | 0.00 | 0.00 | 32 | 1022.4 |
| 20260510212824 | 59 | 234 | 5.0 | 7.0 | 0.00 | 0.00 | 0.00 | 31 | 1022.5 |
| 20260510212321 | 59 | 181 | 4.0 | 5.0 | 0.00 | 0.00 | 0.00 | 33 | 1022.5 |
| 20260510211818 | 58 | 297 | 3.0 | 7.0 | 0.00 | 0.00 | 0.00 | 34 | 1022.7 |
| 20260510211314 | 59 | 311 | 2.0 | 3.0 | 0.00 | 0.00 | 0.00 | 33 | 1022.5 |
| 20260510210810 | 59 | 217 | 4.0 | 7.0 | 0.00 | 0.00 | 0.00 | 34 | 1022.3 |
| 20260510210304 | 58 | 225 | 3.0 | 9.0 | 0.00 | 0.00 | 0.00 | 34 | 1022.3 |
| 20260510205804 | 59 | 259 | 6.0 | 8.0 | 0.00 | 0.00 | 0.00 | 34 | 1022.4 |
| 20260510205300 | 59 | 168 | 7.0 | 10.0 | 0.00 | 0.00 | 0.00 | 34 | 1022.5 |
| 20260510204756 | 59 | 248 | 2.0 | 8.0 | 0.00 | 0.00 | 0.00 | 35 | 1022.4 |
| 20260510204253 | 58 | 210 | 2.0 | 7.0 | 0.00 | 0.00 | 0.00 | 34 | 1022.3 |
| 20260510203749 | 58 | 328 | 3.0 | 8.0 | 0.00 | 0.00 | 0.00 | 35 | 1022.5 |
| 20260510203247 | 58 | 163 | 2.0 | 6.0 | 0.00 | 0.00 | 0.00 | 35 | 1022.5 |
| 20260510202746 | 57 | 212 | 5.0 | 7.0 | 0.00 | 0.00 | 0.00 | 35 | 1022.6 |
| 20260510202242 | 59 | 224 | 5.0 | 9.0 | 0.00 | 0.00 | 0.00 | 34 | 1022.5 |
| 20260510201740 | 58 | 213 | 1.0 | 11.0 | 0.00 | 0.00 | 0.00 | 34 | 1022.4 |
| 20260510201236 | 59 | 219 | 4.0 | 6.0 | 0.00 | 0.00 | 0.00 | 34 | 1022.7 |
| 20260510200733 | 58 | 188 | 9.0 | 10.0 | 0.00 | 0.00 | 0.00 | 33 | 1022.4 |
| 20260510200231 | 59 | 201 | 3.0 | 7.0 | 0.00 | 0.00 | 0.00 | 35 | 1022.4 |
| 20260510195727 | 58 | 224 | 5.0 | 7.0 | 0.00 | 0.00 | 0.00 | 36 | 1022.3 |
| 20260510195225 | 58 | 230 | 7.0 | 9.0 | 0.00 | 0.00 | 0.00 | 34 | 1022.5 |
| 20260510194723 | 59 | 213 | 9.0 | 13.0 | 0.00 | 0.00 | 0.00 | 34 | 1022.4 |
| 20260510194220 | 59 | 350 | 3.0 | 7.0 | 0.00 | 0.00 | 0.00 | 34 | 1022.6 |
| 20260510193715 | 58 | 234 | 5.0 | 7.0 | 0.00 | 0.00 | 0.00 | 35 | 1022.3 |
| 20260510193210 | 58 | 233 | 5.0 | 8.0 | 0.00 | 0.00 | 0.00 | 36 | 1022.6 |
| 20260510192707 | 57 | 131 | 4.0 | 9.0 | 0.00 | 0.00 | 0.00 | 39 | 1022.5 |
| 20260510192202 | 57 | 238 | 10.0 | 13.0 | 0.00 | 0.00 | 0.00 | 35 | 1022.7 |
| 20260510191658 | 58 | 126 | 5.0 | 9.0 | 0.00 | 0.00 | 0.00 | 35 | 1022.6 |
| 20260510191155 | 59 | 226 | 7.0 | 10.0 | 0.00 | 0.00 | 0.00 | 36 | 1022.4 |
| 20260510190652 | 56 | 162 | 6.0 | 10.0 | 0.00 | 0.00 | 0.00 | 38 | 1022.5 |
| 20260510190149 | 57 | 213 | 5.0 | 11.0 | 0.00 | 0.00 | 0.00 | 38 | 1022.4 |
| 20260510185646 | 56 | 233 | 4.0 | 6.0 | 0.00 | 0.00 | 0.00 | 39 | 1022.3 |
| 20260510185144 | 56 | 277 | 2.0 | 6.0 | 0.00 | 0.00 | 0.00 | 38 | 1022.4 |
| 20260510184641 | 57 | 318 | 5.0 | 8.0 | 0.00 | 0.00 | 0.00 | 38 | 1022.5 |
| 20260510184137 | 57 | 207 | 7.0 | 13.0 | 0.00 | 0.00 | 0.00 | 38 | 1022.3 |
| 20260510183632 | 58 | 161 | 1.0 | 8.0 | 0.00 | 0.00 | 0.00 | 37 | 1022.6 |
| 20260510183127 | 57 | 258 | 3.0 | 8.0 | 0.00 | 0.00 | 0.00 | 39 | 1022.6 |
| 20260510182625 | 56 | 174 | 3.0 | 8.0 | 0.00 | 0.00 | 0.00 | 39 | 1022.4 |
| 20260510182120 | 57 | 266 | 3.0 | 6.0 | 0.00 | 0.00 | 0.00 | 38 | 1022.5 |
| 20260510181617 | 57 | 220 | 5.0 | 9.0 | 0.00 | 0.00 | 0.00 | 39 | 1022.6 |
| 20260510181114 | 56 | 180 | 3.0 | 10.0 | 0.00 | 0.00 | 0.00 | 40 | 1022.8 |
| 20260510180610 | 57 | 261 | 3.0 | 6.0 | 0.00 | 0.00 | 0.00 | 40 | 1022.5 |
| 20260510180108 | 56 | 260 | 4.0 | 6.0 | 0.00 | 0.00 | 0.00 | 41 | 1022.6 |
| 20260510175603 | 55 | 207 | 4.0 | 10.0 | 0.00 | 0.00 | 0.00 | 41 | 1022.6 |
| 20260510175059 | 55 | 181 | 4.0 | 10.0 | 0.00 | 0.00 | 0.00 | 42 | 1022.8 |
| 20260510174557 | 56 | 219 | 7.0 | 10.0 | 0.00 | 0.00 | 0.00 | 41 | 1022.7 |
| 20260510174054 | 56 | 229 | 4.0 | 8.0 | 0.00 | 0.00 | 0.00 | 41 | 1022.6 |
| 20260510173549 | 55 | 326 | 2.0 | 7.0 | 0.00 | 0.00 | 0.00 | 43 | 1022.5 |
| 20260510173046 | 55 | 267 | 4.0 | 14.0 | 0.00 | 0.00 | 0.00 | 44 | 1022.6 |
| 20260510172542 | 55 | 227 | 6.0 | 13.0 | 0.00 | 0.00 | 0.00 | 44 | 1022.6 |
| 20260510172038 | 54 | 220 | 2.0 | 7.0 | 0.00 | 0.00 | 0.00 | 45 | 1022.8 |
| 20260510171535 | 56 | 253 | 4.0 | 11.0 | 0.00 | 0.00 | 0.00 | 43 | 1022.7 |
| 20260510171033 | 55 | 201 | 5.0 | 9.0 | 0.00 | 0.00 | 0.00 | 45 | 1022.8 |
| 20260510170528 | 56 | 221 | 6.0 | 8.0 | 0.00 | 0.00 | 0.00 | 44 | 1022.7 |
| 20260510170026 | 54 | 6 | 4.0 | 6.0 | 0.00 | 0.00 | 0.00 | 45 | 1022.7 |
| 20260510165521 | 53 | 143 | 7.0 | 14.0 | 0.00 | 0.00 | 0.00 | 47 | 1022.7 |
| 20260510165018 | 53 | 246 | 5.0 | 7.0 | 0.00 | 0.00 | 0.00 | 48 | 1022.7 |
| 20260510164515 | 53 | 221 | 3.0 | 8.0 | 0.00 | 0.00 | 0.00 | 51 | 1022.9 |
| 20260510164011 | 53 | 241 | 2.0 | 6.0 | 0.00 | 0.00 | 0.00 | 51 | 1022.8 |
| 20260510163506 | 52 | 288 | 4.0 | 6.0 | 0.00 | 0.00 | 0.00 | 51 | 1023.1 |
| 20260510163002 | 53 | 249 | 3.0 | 7.0 | 0.00 | 0.00 | 0.00 | 51 | 1022.8 |
| 20260510162458 | 53 | 203 | 4.0 | 6.0 | 0.00 | 0.00 | 0.00 | 51 | 1022.8 |
| 20260510161955 | 53 | 238 | 7.0 | 10.0 | 0.00 | 0.00 | 0.00 | 50 | 1022.8 |
| 20260510161451 | 53 | 264 | 2.0 | 7.0 | 0.00 | 0.00 | 0.00 | 50 | 1022.8 |
| 20260510160948 | 52 | 181 | 2.0 | 7.0 | 0.00 | 0.00 | 0.00 | 54 | 1022.6 |
| 20260510160444 | 52 | 243 | 2.0 | 8.0 | 0.00 | 0.00 | 0.00 | 53 | 1022.6 |
| 20260510155937 | 51 | 224 | 5.0 | 6.0 | 0.00 | 0.00 | 0.00 | 53 | 1022.7 |
| 20260510155434 | 51 | 272 | 2.0 | 8.0 | 0.00 | 0.00 | 0.00 | 53 | 1022.7 |
| 20260510154931 | 51 | 149 | 1.0 | 5.0 | 0.00 | 0.00 | 0.00 | 53 | 1022.8 |
| 20260510154426 | 51 | 174 | 1.0 | 6.0 | 0.00 | 0.00 | 0.00 | 54 | 1022.7 |
| 20260510153920 | 51 | 176 | 3.0 | 3.0 | 0.00 | 0.00 | 0.00 | 52 | 1022.7 |
| 20260510153417 | 50 | 195 | 4.0 | 7.0 | 0.00 | 0.00 | 0.00 | 54 | 1022.7 |
| 20260510152913 | 50 | 196 | 4.0 | 6.0 | 0.00 | 0.00 | 0.00 | 53 | 1022.6 |
| 20260510152411 | 51 | 186 | 2.0 | 9.0 | 0.00 | 0.00 | 0.00 | 54 | 1022.5 |
| 20260510151907 | 51 | 183 | 3.0 | 6.0 | 0.00 | 0.00 | 0.00 | 53 | 1022.5 |
| 20260510151405 | 50 | 214 | 5.0 | 8.0 | 0.00 | 0.00 | 0.00 | 52 | 1022.4 |
| 20260510150901 | 51 | 297 | 5.0 | 7.0 | 0.00 | 0.00 | 0.00 | 52 | 1022.3 |
| 20260510150356 | 50 | 234 | 4.0 | 5.0 | 0.00 | 0.00 | 0.00 | 53 | 1022.2 |
| 20260510145853 | 50 | 253 | 4.0 | 5.0 | 0.00 | 0.00 | 0.00 | 54 | 1022.5 |
| 20260510145349 | 50 | 303 | 2.0 | 6.0 | 0.00 | 0.00 | 0.00 | 54 | 1022.6 |
| 20260510144846 | 49 | 215 | 6.0 | 8.0 | 0.00 | 0.00 | 0.00 | 54 | 1022.5 |
| 20260510144343 | 50 | 202 | 2.0 | 3.0 | 0.00 | 0.00 | 0.00 | 54 | 1022.3 |
| 20260510143837 | 50 | 230 | 2.0 | 3.0 | 0.00 | 0.00 | 0.00 | 56 | 1022.4 |
| 20260510143333 | 49 | 275 | 1.0 | 1.0 | 0.00 | 0.00 | 0.00 | 57 | 1022.4 |
| 20260510142831 | 48 | 252 | 2.0 | 6.0 | 0.00 | 0.00 | 0.00 | 57 | 1022.4 |
| 20260510142327 | 49 | 248 | 3.0 | 3.0 | 0.00 | 0.00 | 0.00 | 57 | 1022.4 |
| 20260510141824 | 49 | 254 | 3.0 | 6.0 | 0.00 | 0.00 | 0.00 | 57 | 1022.5 |
| 20260510141322 | 49 | 276 | 5.0 | 8.0 | 0.00 | 0.00 | 0.00 | 57 | 1022.4 |
| 20260510140819 | 48 | 229 | 1.0 | 3.0 | 0.00 | 0.00 | 0.00 | 59 | 1022.2 |
| 20260510140314 | 48 | 199 | 4.0 | 6.0 | 0.00 | 0.00 | 0.00 | 58 | 1022.3 |
| 20260510135808 | 48 | 240 | 3.0 | 6.0 | 0.00 | 0.00 | 0.00 | 58 | 1021.9 |
| 20260510135306 | 49 | 164 | 1.0 | 3.0 | 0.00 | 0.00 | 0.00 | 57 | 1022.2 |
| 20260510134802 | 50 | 278 | 3.0 | 6.0 | 0.00 | 0.00 | 0.00 | 57 | 1022.2 |
| 20260510134258 | 49 | 34 | 0.0 | 2.0 | 0.00 | 0.00 | 0.00 | 56 | 1022.2 |
| 20260510133754 | 49 | 201 | 3.0 | 5.0 | 0.00 | 0.00 | 0.00 | 58 | 1022.0 |
| 20260510133250 | 49 | 291 | 1.0 | 6.0 | 0.00 | 0.00 | 0.00 | 58 | 1022.3 |
| 20260510132746 | 48 | 261 | 2.0 | 6.0 | 0.00 | 0.00 | 0.00 | 59 | 1022.0 |
| 20260510132244 | 48 | 260 | 4.0 | 8.0 | 0.00 | 0.00 | 0.00 | 59 | 1021.9 |
| 20260510131741 | 48 | 312 | 1.0 | 6.0 | 0.00 | 0.00 | 0.00 | 60 | 1022.0 |
| 20260510131239 | 48 | 303 | 2.0 | 3.0 | 0.00 | 0.00 | 0.00 | 61 | 1021.9 |
| 20260510130735 | 47 | 241 | 1.0 | 1.0 | 0.00 | 0.00 | 0.00 | 63 | 1022.0 |
| 20260510130232 | 46 | 276 | 1.0 | 2.0 | 0.00 | 0.00 | 0.00 | 63 | 1021.7 |
| 20260510125728 | 46 | 266 | 0.0 | 1.0 | 0.00 | 0.00 | 0.00 | 64 | 1021.8 |
| 20260510125224 | 46 | 220 | 0.0 | 1.0 | 0.00 | 0.00 | 0.00 | 65 | 1021.7 |
| 20260510124721 | 46 | 300 | 2.0 | 2.0 | 0.00 | 0.00 | 0.00 | 64 | 1021.7 |
| 20260510124219 | 45 | 231 | 0.0 | 1.0 | 0.00 | 0.00 | 0.00 | 65 | 1021.6 |
| 20260510123714 | 45 | 256 | 0.0 | 0.0 | 0.00 | 0.00 | 0.00 | 66 | 1021.5 |
| 20260510123210 | 44 | 219 | 1.0 | 1.0 | 0.00 | 0.00 | 0.00 | 66 | 1021.7 |
| 20260510122706 | 44 | 241 | 0.0 | 0.0 | 0.00 | 0.00 | 0.00 | 68 | 1021.6 |
| 20260510122203 | 44 | 258 | 0.0 | 0.0 | 0.00 | 0.00 | 0.00 | 68 | 1021.6 |
| 20260510121659 | 44 | 246 | 0.0 | 0.0 | 0.00 | 0.00 | 0.00 | 69 | 1021.4 |
| 20260510121156 | 43 | 267 | 0.0 | 0.0 | 0.00 | 0.00 | 0.00 | 70 | 1021.3 |
| 20260510120648 | 43 | 242 | 0.0 | 0.0 | 0.00 | 0.00 | 0.00 | 69 | 1021.4 |
| 20260510120144 | 43 | 250 | 1.0 | 1.0 | 0.00 | 0.00 | 0.00 | 69 | 1021.2 |
| 20260510115640 | 43 | 238 | 0.0 | 1.0 | 0.00 | 0.00 | 0.00 | 69 | 1021.3 |
| 20260510115139 | 43 | 194 | 0.0 | 1.0 | 0.00 | 0.00 | 0.00 | 69 | 1021.2 |
| 20260510114634 | 43 | 213 | 0.0 | 1.0 | 0.00 | 0.00 | 0.00 | 69 | 1020.9 |
| 20260510114130 | 43 | 246 | 0.0 | 1.0 | 0.00 | 0.00 | 0.00 | 69 | 1021.1 |
| 20260510113625 | 43 | 230 | 0.0 | 1.0 | 0.00 | 0.00 | 0.00 | 68 | 1021.0 |
| 20260510113123 | 43 | 214 | 1.0 | 1.0 | 0.00 | 0.00 | 0.00 | 68 | 1021.0 |
| 20260510112620 | 42 | 281 | 1.0 | 2.0 | 0.00 | 0.00 | 0.00 | 69 | 1020.8 |
| 20260510112116 | 42 | 230 | 0.0 | 1.0 | 0.00 | 0.00 | 0.00 | 69 | 1020.8 |
| 20260510111612 | 42 | 248 | 0.0 | 2.0 | 0.00 | 0.00 | 0.00 | 69 | 1020.8 |
| 20260510111108 | 42 | 243 | 0.0 | 0.0 | 0.00 | 0.00 | 0.00 | 70 | 1020.8 |
| 20260510110604 | 41 | 232 | 1.0 | 1.0 | 0.00 | 0.00 | 0.00 | 71 | 1020.7 |
| 20260510105557 | 41 | 246 | 0.0 | 0.0 | 0.00 | 0.00 | 0.00 | 70 | 1020.4 |
| 20260510105052 | 42 | 289 | 0.0 | 1.0 | 0.00 | 0.00 | 0.00 | 71 | 1020.2 |
| 20260510104549 | 42 | 330 | 0.0 | 0.0 | 0.00 | 0.00 | 0.00 | 70 | 1020.4 |
| 20260510104045 | 42 | 287 | 0.0 | 1.0 | 0.00 | 0.00 | 0.00 | 68 | 1020.2 |
| 20260510103542 | 42 | 265 | 0.0 | 0.0 | 0.00 | 0.00 | 0.00 | 69 | 1020.3 |
| 20260510103038 | 42 | 248 | 0.0 | 1.0 | 0.00 | 0.00 | 0.00 | 69 | 1020.1 |
| 20260510102534 | 42 | 259 | 0.0 | 2.0 | 0.00 | 0.00 | 0.00 | 68 | 1020.0 |
| 20260510102030 | 42 | 236 | 0.0 | 0.0 | 0.00 | 0.00 | 0.00 | 69 | 1020.1 |
| 20260510101528 | 42 | 235 | 0.0 | 0.0 | 0.00 | 0.00 | 0.00 | 69 | 1020.0 |
| 20260510101027 | 42 | 237 | 0.0 | 0.0 | 0.00 | 0.00 | 0.00 | 68 | 1019.8 |
| 20260510100522 | 42 | 238 | 0.0 | 2.0 | 0.00 | 0.00 | 0.00 | 67 | 1020.0 |
| 20260510100020 | 42 | 240 | 0.0 | 2.0 | 0.00 | 0.00 | 0.00 | 67 | 1019.7 |
| 20260510095515 | 42 | 223 | 1.0 | 1.0 | 0.00 | 0.00 | 0.00 | 68 | 1019.6 |
| 20260510095014 | 42 | 247 | 0.0 | 0.0 | 0.00 | 0.00 | 0.00 | 67 | 1019.5 |
| 20260510094509 | 43 | 246 | 1.0 | 1.0 | 0.00 | 0.00 | 0.00 | 65 | 1019.5 |
| 20260510094005 | 43 | 235 | 0.0 | 1.0 | 0.00 | 0.00 | 0.00 | 65 | 1019.7 |
| 20260510093501 | 42 | 256 | 0.0 | 1.0 | 0.00 | 0.00 | 0.00 | 66 | 1019.4 |
| 20260510092958 | 42 | 230 | 0.0 | 1.0 | 0.00 | 0.00 | 0.00 | 66 | 1019.5 |
| 20260510092455 | 42 | 247 | 0.0 | 0.0 | 0.00 | 0.00 | 0.00 | 66 | 1019.2 |
| 20260510091954 | 43 | 248 | 0.0 | 0.0 | 0.00 | 0.00 | 0.00 | 66 | 1019.2 |
| 20260510091451 | 43 | 231 | 1.0 | 1.0 | 0.00 | 0.00 | 0.00 | 63 | 1019.3 |
| 20260510090947 | 43 | 219 | 1.0 | 1.0 | 0.00 | 0.00 | 0.00 | 63 | 1019.2 |
| 20260510090445 | 42 | 225 | 0.0 | 1.0 | 0.00 | 0.00 | 0.00 | 64 | 1019.3 |
| 20260510085940 | 42 | 221 | 0.0 | 1.0 | 0.00 | 0.00 | 0.00 | 64 | 1019.1 |
| 20260510085435 | 40 | 226 | 0.0 | 1.0 | 0.00 | 0.00 | 0.00 | 67 | 1019.1 |
| 20260510084931 | 40 | 278 | 0.0 | 0.0 | 0.00 | 0.00 | 0.00 | 70 | 1018.8 |
| 20260510084428 | 40 | 278 | 0.0 | 0.0 | 0.00 | 0.00 | 0.00 | 69 | 1019.0 |
| 20260510083925 | 40 | 304 | 0.0 | 0.0 | 0.00 | 0.00 | 0.00 | 72 | 1018.8 |
| 20260510083421 | 41 | 305 | 0.0 | 0.0 | 0.00 | 0.00 | 0.00 | 72 | 1018.6 |
| 20260510082916 | 41 | 306 | 0.0 | 0.0 | 0.00 | 0.00 | 0.00 | 71 | 1018.4 |
| 20260510082415 | 41 | 287 | 0.0 | 0.0 | 0.00 | 0.00 | 0.00 | 69 | 1018.8 |
| 20260510081913 | 41 | 285 | 0.0 | 0.0 | 0.00 | 0.00 | 0.00 | 70 | 1018.5 |
| 20260510081409 | 40 | 248 | 0.0 | 0.0 | 0.00 | 0.00 | 0.00 | 69 | 1018.5 |
| 20260510080906 | 40 | 247 | 0.0 | 0.0 | 0.00 | 0.00 | 0.00 | 68 | 1018.3 |
| 20260510080400 | 40 | 248 | 0.0 | 0.0 | 0.00 | 0.00 | 0.00 | 67 | 1018.3 |
| 20260510075858 | 41 | 247 | 0.0 | 0.0 | 0.00 | 0.00 | 0.00 | 66 | 1018.4 |
| 20260510075356 | 41 | 247 | 0.0 | 0.0 | 0.00 | 0.00 | 0.00 | 65 | 1018.4 |
| 20260510074851 | 41 | 247 | 0.0 | 0.0 | 0.00 | 0.00 | 0.00 | 64 | 1018.4 |
| 20260510074349 | 41 | 247 | 0.0 | 0.0 | 0.00 | 0.00 | 0.00 | 64 | 1018.3 |
| 20260510073845 | 42 | 247 | 0.0 | 0.0 | 0.00 | 0.00 | 0.00 | 62 | 1018.2 |
| 20260510073341 | 42 | 268 | 0.0 | 0.0 | 0.00 | 0.00 | 0.00 | 63 | 1018.1 |
| 20260510072837 | 41 | 269 | 0.0 | 0.0 | 0.00 | 0.00 | 0.00 | 63 | 1018.2 |
| 20260510072334 | 42 | 269 | 0.0 | 0.0 | 0.00 | 0.00 | 0.00 | 61 | 1018.2 |
| 20260510071830 | 42 | 269 | 0.0 | 0.0 | 0.00 | 0.00 | 0.00 | 62 | 1018.2 |
| 20260510071326 | 43 | 234 | 0.0 | 0.0 | 0.00 | 0.00 | 0.00 | 61 | 1018.3 |
| 20260510070826 | 43 | 234 | 0.0 | 0.0 | 0.00 | 0.00 | 0.00 | 60 | 1018.3 |
| 20260510070321 | 42 | 234 | 0.0 | 0.0 | 0.00 | 0.00 | 0.00 | 60 | 1018.3 |
| 20260510065816 | 42 | 233 | 0.0 | 0.0 | 0.00 | 0.00 | 0.00 | 60 | 1018.4 |
| 20260510065313 | 42 | 234 | 0.0 | 0.0 | 0.00 | 0.00 | 0.00 | 60 | 1018.3 |
| 20260510064810 | 42 | 229 | 0.0 | 0.0 | 0.00 | 0.00 | 0.00 | 59 | 1018.1 |
| 20260510064308 | 43 | 229 | 0.0 | 0.0 | 0.00 | 0.00 | 0.00 | 58 | 1018.2 |
| 20260510063803 | 44 | 236 | 0.0 | 0.0 | 0.00 | 0.00 | 0.00 | 57 | 1018.2 |
| 20260510063300 | 44 | 196 | 0.0 | 1.0 | 0.00 | 0.00 | 0.00 | 56 | 1018.2 |
| 20260510062756 | 45 | 209 | 0.0 | 2.0 | 0.00 | 0.00 | 0.00 | 56 | 1018.0 |
| 20260510062252 | 45 | 237 | 0.0 | 0.0 | 0.00 | 0.00 | 0.00 | 56 | 1018.2 |
| 20260510061748 | 44 | 242 | 0.0 | 1.0 | 0.00 | 0.00 | 0.00 | 56 | 1018.2 |
| 20260510061245 | 44 | 246 | 0.0 | 0.0 | 0.00 | 0.00 | 0.00 | 56 | 1018.1 |
| 20260510060741 | 44 | 247 | 0.0 | 1.0 | 0.00 | 0.00 | 0.00 | 56 | 1018.1 |
| 20260510060238 | 44 | 268 | 0.0 | 0.0 | 0.00 | 0.00 | 0.00 | 57 | 1018.3 |
| 20260510055735 | 44 | 244 | 0.0 | 0.0 | 0.00 | 0.00 | 0.00 | 57 | 1018.1 |
| 20260510055233 | 45 | 247 | 0.0 | 0.0 | 0.00 | 0.00 | 0.00 | 57 | 1018.1 |
| 20260510054732 | 44 | 244 | 0.0 | 0.0 | 0.00 | 0.00 | 0.00 | 55 | 1018.1 |
| 20260510054229 | 45 | 254 | 0.0 | 0.0 | 0.00 | 0.00 | 0.00 | 54 | 1018.2 |
| 20260510053728 | 46 | 254 | 0.0 | 0.0 | 0.00 | 0.00 | 0.00 | 54 | 1017.9 |
| 20260510053225 | 46 | 229 | 0.0 | 0.0 | 0.00 | 0.00 | 0.00 | 54 | 1017.8 |
| 20260510052720 | 46 | 254 | 0.0 | 0.0 | 0.00 | 0.00 | 0.00 | 52 | 1017.9 |
| 20260510052217 | 47 | 214 | 0.0 | 1.0 | 0.00 | 0.00 | 0.00 | 51 | 1017.9 |
| 20260510051713 | 47 | 208 | 0.0 | 1.0 | 0.00 | 0.00 | 0.00 | 52 | 1017.9 |
| 20260510051209 | 47 | 230 | 0.0 | 0.0 | 0.00 | 0.00 | 0.00 | 51 | 1017.7 |
| 20260510050707 | 48 | 248 | 0.0 | 0.0 | 0.00 | 0.00 | 0.00 | 49 | 1017.7 |
| 20260510050204 | 48 | 235 | 0.0 | 1.0 | 0.00 | 0.00 | 0.00 | 49 | 1017.7 |
| 20260510045701 | 49 | 235 | 0.0 | 1.0 | 0.00 | 0.00 | 0.00 | 49 | 1017.8 |
| 20260510045157 | 49 | 243 | 0.0 | 1.0 | 0.00 | 0.00 | 0.00 | 48 | 1017.7 |
| 20260510044653 | 49 | 234 | 1.0 | 1.0 | 0.00 | 0.00 | 0.00 | 47 | 1017.7 |
| 20260510044151 | 49 | 162 | 2.0 | 2.0 | 0.00 | 0.00 | 0.00 | 47 | 1017.7 |
| 20260510043646 | 50 | 240 | 2.0 | 6.0 | 0.00 | 0.00 | 0.00 | 46 | 1017.5 |
| 20260510043143 | 50 | 171 | 0.0 | 1.0 | 0.00 | 0.00 | 0.00 | 46 | 1017.7 |
| 20260510042641 | 50 | 267 | 1.0 | 2.0 | 0.00 | 0.00 | 0.00 | 46 | 1017.8 |
| 20260510042137 | 50 | 257 | 1.0 | 2.0 | 0.00 | 0.00 | 0.00 | 45 | 1017.8 |
| 20260510041634 | 51 | 244 | 1.0 | 3.0 | 0.00 | 0.00 | 0.00 | 45 | 1017.6 |
| 20260510041131 | 51 | 263 | 1.0 | 5.0 | 0.00 | 0.00 | 0.00 | 45 | 1017.6 |
| 20260510040628 | 51 | 249 | 1.0 | 2.0 | 0.00 | 0.00 | 0.00 | 45 | 1017.5 |
| 20260510040125 | 51 | 267 | 3.0 | 7.0 | 0.00 | 0.00 | 0.00 | 45 | 1017.3 |
| 20260510035620 | 51 | 240 | 0.0 | 2.0 | 0.00 | 0.00 | 0.00 | 46 | 1017.3 |
| 20260510035115 | 51 | 213 | 2.0 | 5.0 | 0.00 | 0.00 | 0.00 | 44 | 1017.4 |
| 20260510034613 | 51 | 241 | 1.0 | 2.0 | 0.00 | 0.00 | 0.00 | 45 | 1017.1 |
| 20260510034110 | 51 | 211 | 1.0 | 2.0 | 0.00 | 0.00 | 0.00 | 44 | 1017.1 |
| 20260510033606 | 51 | 233 | 1.0 | 3.0 | 0.00 | 0.00 | 0.00 | 44 | 1017.1 |
| 20260510033104 | 51 | 252 | 1.0 | 2.0 | 0.00 | 0.00 | 0.00 | 45 | 1017.1 |
| 20260510032600 | 51 | 221 | 0.0 | 1.0 | 0.00 | 0.00 | 0.00 | 45 | 1017.0 |
| 20260510032055 | 51 | 306 | 2.0 | 3.0 | 0.00 | 0.00 | 0.00 | 44 | 1016.8 |
| 20260510031550 | 51 | 292 | 0.0 | 2.0 | 0.00 | 0.00 | 0.00 | 44 | 1016.7 |
| 20260510031047 | 51 | 222 | 1.0 | 1.0 | 0.00 | 0.00 | 0.00 | 43 | 1016.9 |
| 20260510030542 | 52 | 222 | 0.0 | 1.0 | 0.00 | 0.00 | 0.00 | 43 | 1016.6 |
| 20260510030040 | 52 | 230 | 2.0 | 2.0 | 0.00 | 0.00 | 0.00 | 42 | 1016.5 |
| 20260510025536 | 52 | 235 | 1.0 | 2.0 | 0.00 | 0.00 | 0.00 | 43 | 1016.6 |
| 20260510025034 | 52 | 244 | 1.0 | 2.0 | 0.00 | 0.00 | 0.00 | 42 | 1016.3 |
| 20260510024531 | 53 | 103 | 1.0 | 5.0 | 0.00 | 0.00 | 0.00 | 42 | 1016.1 |
| 20260510024027 | 53 | 258 | 1.0 | 2.0 | 0.00 | 0.00 | 0.00 | 41 | 1016.5 |
| 20260510023523 | 53 | 220 | 0.0 | 3.0 | 0.00 | 0.00 | 0.00 | 41 | 1016.1 |
| 20260510023021 | 53 | 272 | 1.0 | 2.0 | 0.00 | 0.00 | 0.00 | 40 | 1016.1 |
| 20260510022520 | 53 | 245 | 0.0 | 1.0 | 0.00 | 0.00 | 0.00 | 40 | 1015.8 |
| 20260510022014 | 53 | 247 | 3.0 | 6.0 | 0.00 | 0.00 | 0.00 | 39 | 1015.7 |
| 20260510021511 | 53 | 222 | 1.0 | 6.0 | 0.00 | 0.00 | 0.00 | 41 | 1015.6 |
| 20260510021008 | 53 | 259 | 1.0 | 2.0 | 0.00 | 0.00 | 0.00 | 40 | 1015.6 |
| 20260510020503 | 53 | 209 | 1.0 | 2.0 | 0.00 | 0.00 | 0.00 | 40 | 1015.5 |
| 20260510015958 | 54 | 225 | 2.0 | 3.0 | 0.00 | 0.00 | 0.00 | 39 | 1015.1 |
| 20260510015454 | 54 | 140 | 2.0 | 5.0 | 0.00 | 0.00 | 0.00 | 38 | 1015.0 |
| 20260510014950 | 54 | 222 | 1.0 | 5.0 | 0.00 | 0.00 | 0.00 | 38 | 1014.9 |
| 20260510014448 | 54 | 225 | 2.0 | 3.0 | 0.00 | 0.00 | 0.00 | 38 | 1014.8 |
| 20260510013944 | 54 | 222 | 1.0 | 2.0 | 0.00 | 0.00 | 0.00 | 39 | 1014.9 |
| 20260510013438 | 54 | 246 | 1.0 | 6.0 | 0.00 | 0.00 | 0.00 | 38 | 1014.7 |
| 20260510012935 | 54 | 232 | 4.0 | 5.0 | 0.00 | 0.00 | 0.00 | 38 | 1014.5 |
| 20260510012429 | 54 | 196 | 3.0 | 5.0 | 0.00 | 0.00 | 0.00 | 38 | 1014.5 |
| 20260510011925 | 55 | 264 | 1.0 | 2.0 | 0.00 | 0.00 | 0.00 | 38 | 1014.5 |
| 20260510011420 | 55 | 227 | 5.0 | 7.0 | 0.00 | 0.00 | 0.00 | 36 | 1014.5 |
| 20260510010916 | 55 | 258 | 2.0 | 6.0 | 0.00 | 0.00 | 0.00 | 36 | 1014.4 |
| 20260510010414 | 55 | 252 | 3.0 | 3.0 | 0.00 | 0.00 | 0.00 | 36 | 1014.2 |
| 20260510005910 | 56 | 199 | 3.0 | 5.0 | 0.00 | 0.00 | 0.00 | 36 | 1014.1 |
| 20260510005406 | 56 | 322 | 3.0 | 7.0 | 0.00 | 0.00 | 0.00 | 35 | 1014.0 |
| 20260510004904 | 56 | 245 | 4.0 | 6.0 | 0.00 | 0.00 | 0.00 | 35 | 1014.0 |
| 20260510004401 | 57 | 212 | 1.0 | 5.0 | 0.00 | 0.00 | 0.00 | 35 | 1014.0 |
| 20260510003859 | 58 | 277 | 3.0 | 6.0 | 0.00 | 0.00 | 0.00 | 34 | 1014.1 |
| 20260510003356 | 58 | 148 | 2.0 | 5.0 | 0.00 | 0.00 | 0.00 | 34 | 1014.0 |
| 20260510002854 | 57 | 242 | 3.0 | 5.0 | 0.00 | 0.00 | 0.00 | 34 | 1014.0 |
| 20260510002352 | 58 | 250 | 1.0 | 5.0 | 0.00 | 0.00 | 0.00 | 34 | 1013.6 |
| 20260510001848 | 58 | 201 | 9.0 | 14.0 | 0.00 | 0.00 | 0.00 | 33 | 1013.6 |
| 20260510001346 | 58 | 208 | 5.0 | 7.0 | 0.00 | 0.00 | 0.00 | 33 | 1013.8 |
| 20260510000843 | 58 | 130 | 2.0 | 5.0 | 0.00 | 0.00 | 0.00 | 34 | 1013.7 |
| 20260510000341 | 57 | 146 | 2.0 | 10.0 | 0.00 | 0.00 | 0.00 | 35 | 1013.7 |
| 20260509235836 | 58 | 244 | 3.0 | 8.0 | 0.00 | 0.00 | 0.00 | 34 | 1013.7 |
| 20260509235333 | 58 | 237 | 3.0 | 5.0 | 0.00 | 0.00 | 0.00 | 34 | 1013.7 |
| 20260509234829 | 58 | 269 | 4.0 | 7.0 | 0.00 | 0.00 | 0.00 | 34 | 1013.4 |
| 20260509234326 | 58 | 237 | 3.0 | 9.0 | 0.00 | 0.00 | 0.00 | 34 | 1013.4 |
| 20260509233824 | 59 | 207 | 4.0 | 9.0 | 0.00 | 0.00 | 0.00 | 35 | 1013.4 |
| 20260509233321 | 58 | 246 | 4.0 | 8.0 | 0.00 | 0.00 | 0.00 | 34 | 1013.2 |
| 20260509232817 | 58 | 223 | 4.0 | 7.0 | 0.00 | 0.00 | 0.00 | 35 | 1013.3 |
| 20260509232315 | 58 | 219 | 6.0 | 9.0 | 0.00 | 0.00 | 0.00 | 35 | 1013.1 |
| 20260509231811 | 58 | 210 | 6.0 | 9.0 | 0.00 | 0.00 | 0.00 | 35 | 1013.0 |
| 20260509231308 | 58 | 200 | 5.0 | 10.0 | 0.00 | 0.00 | 0.00 | 35 | 1013.3 |
| 20260509230806 | 58 | 254 | 3.0 | 6.0 | 0.00 | 0.00 | 0.00 | 35 | 1013.1 |
| 20260509230302 | 58 | 184 | 3.0 | 8.0 | 0.00 | 0.00 | 0.00 | 34 | 1013.0 |
| 20260509225757 | 58 | 250 | 2.0 | 3.0 | 0.00 | 0.00 | 0.00 | 35 | 1012.8 |
| 20260509225254 | 58 | 224 | 5.0 | 8.0 | 0.00 | 0.00 | 0.00 | 33 | 1012.9 |
| 20260509224750 | 59 | 284 | 5.0 | 8.0 | 0.00 | 0.00 | 0.00 | 33 | 1012.9 |